Year,Month,Day,Hour,Minute,Value (Times are PST for windspeed in km/hr)
2017,07,15,00,00,1.30
2017,07,15,00,01,3.10
2017,07,15,00,02,3.00
2017,07,15,00,03,1.70
2017,07,15,00,04,1.10
2017,07,15,00,05,0.60
2017,07,15,00,06,1.70
2017,07,15,00,07,2.40
2017,07,15,00,08,3.80
2017,07,15,00,09,5.00
2017,07,15,00,10,3.90
2017,07,15,00,11,3.40
2017,07,15,00,12,3.90
2017,07,15,00,13,3.60
2017,07,15,00,14,4.40
2017,07,15,00,15,4.50
2017,07,15,00,16,6.00
2017,07,15,00,17,4.20
2017,07,15,00,18,3.00
2017,07,15,00,19,2.90
2017,07,15,00,20,2.70
2017,07,15,00,21,2.50
2017,07,15,00,22,1.80
2017,07,15,00,23,1.60
2017,07,15,00,24,0.80
2017,07,15,00,25,2.50
2017,07,15,00,26,2.90
2017,07,15,00,27,1.20
2017,07,15,00,28,0.90
2017,07,15,00,29,0.80
2017,07,15,00,30,2.50
2017,07,15,00,31,0.90
2017,07,15,00,32,4.90
2017,07,15,00,33,3.70
2017,07,15,00,34,3.40
2017,07,15,00,35,1.10
2017,07,15,00,36,2.80
2017,07,15,00,37,1.90
2017,07,15,00,38,1.30
2017,07,15,00,39,1.30
2017,07,15,00,40,2.00
2017,07,15,00,41,1.60
2017,07,15,00,42,1.10
2017,07,15,00,43,3.20
2017,07,15,00,44,3.30
2017,07,15,00,45,3.60
2017,07,15,00,46,2.30
2017,07,15,00,47,1.20
2017,07,15,00,48,1.10
2017,07,15,00,49,1.40
2017,07,15,00,50,2.30
2017,07,15,00,51,4.30
2017,07,15,00,52,4.40
2017,07,15,00,53,3.30
2017,07,15,00,54,2.10
2017,07,15,00,55,1.10
2017,07,15,00,56,0.80
2017,07,15,00,57,1.40
2017,07,15,00,58,3.20
2017,07,15,00,59,3.70
2017,07,15,01,00,1.60
2017,07,15,01,01,2.00
2017,07,15,01,02,1.90
2017,07,15,01,03,2.60
2017,07,15,01,04,2.70
2017,07,15,01,05,1.60
2017,07,15,01,06,1.20
2017,07,15,01,07,2.60
2017,07,15,01,08,3.70
2017,07,15,01,09,2.20
2017,07,15,01,10,1.80
2017,07,15,01,11,3.00
2017,07,15,01,12,4.30
2017,07,15,01,13,4.70
2017,07,15,01,14,6.80
2017,07,15,01,15,3.90
2017,07,15,01,16,2.10
2017,07,15,01,17,3.20
2017,07,15,01,18,1.30
2017,07,15,01,19,2.20
2017,07,15,01,20,3.90
2017,07,15,01,21,4.20
2017,07,15,01,22,1.90
2017,07,15,01,23,4.10
2017,07,15,01,24,2.60
2017,07,15,01,25,5.20
2017,07,15,01,26,4.80
2017,07,15,01,27,6.20
2017,07,15,01,28,3.20
2017,07,15,01,29,4.00
2017,07,15,01,30,6.10
2017,07,15,01,31,4.90
2017,07,15,01,32,3.70
2017,07,15,01,33,1.30
2017,07,15,01,34,0.60
2017,07,15,01,35,2.30
2017,07,15,01,36,5.10
2017,07,15,01,37,6.30
2017,07,15,01,38,3.30
2017,07,15,01,39,2.80
2017,07,15,01,40,1.50
2017,07,15,01,41,1.20
2017,07,15,01,42,0.40
2017,07,15,01,43,2.40
2017,07,15,01,44,3.10
2017,07,15,01,45,1.60
2017,07,15,01,46,2.70
2017,07,15,01,47,2.70
2017,07,15,01,48,3.00
2017,07,15,01,49,3.20
2017,07,15,01,50,7.90
2017,07,15,01,51,4.30
2017,07,15,01,52,5.20
2017,07,15,01,53,6.20
2017,07,15,01,54,3.80
2017,07,15,01,55,4.20
2017,07,15,01,56,3.70
2017,07,15,01,57,2.00
2017,07,15,01,58,3.00
2017,07,15,01,59,5.50
2017,07,15,02,00,6.10
2017,07,15,02,01,7.70
2017,07,15,02,02,8.90
2017,07,15,02,03,7.50
2017,07,15,02,04,12.20
2017,07,15,02,05,7.60
2017,07,15,02,06,6.70
2017,07,15,02,07,5.30
2017,07,15,02,08,5.70
2017,07,15,02,09,6.30
2017,07,15,02,10,4.30
2017,07,15,02,11,3.30
2017,07,15,02,12,2.30
2017,07,15,02,13,4.90
2017,07,15,02,14,3.90
2017,07,15,02,15,2.80
2017,07,15,02,16,5.00
2017,07,15,02,17,8.70
2017,07,15,02,18,10.20
2017,07,15,02,19,7.80
2017,07,15,02,20,5.80
2017,07,15,02,21,5.70
2017,07,15,02,22,6.90
2017,07,15,02,23,9.10
2017,07,15,02,24,8.50
2017,07,15,02,25,6.00
2017,07,15,02,26,2.60
2017,07,15,02,27,5.40
2017,07,15,02,28,8.80
2017,07,15,02,29,4.50
2017,07,15,02,30,1.60
2017,07,15,02,31,3.10
2017,07,15,02,32,4.00
2017,07,15,02,33,2.80
2017,07,15,02,34,1.20
2017,07,15,02,35,1.80
2017,07,15,02,36,2.70
2017,07,15,02,37,3.00
2017,07,15,02,38,7.10
2017,07,15,02,39,4.30
2017,07,15,02,40,3.70
2017,07,15,02,41,6.30
2017,07,15,02,42,4.80
2017,07,15,02,43,5.00
2017,07,15,02,44,3.10
2017,07,15,02,45,7.10
2017,07,15,02,46,6.90
2017,07,15,02,47,6.50
2017,07,15,02,48,3.20
2017,07,15,02,49,11.70
2017,07,15,02,50,12.40
2017,07,15,02,51,13.20
2017,07,15,02,52,8.60
2017,07,15,02,53,12.80
2017,07,15,02,54,12.00
2017,07,15,02,55,8.40
2017,07,15,02,56,10.10
2017,07,15,02,57,5.10
2017,07,15,02,58,9.10
2017,07,15,02,59,5.80
2017,07,15,03,00,1.70
2017,07,15,03,01,4.80
2017,07,15,03,02,3.70
2017,07,15,03,03,4.40
2017,07,15,03,04,2.50
2017,07,15,03,05,2.00
2017,07,15,03,06,3.90
2017,07,15,03,07,3.40
2017,07,15,03,08,5.40
2017,07,15,03,09,3.70
2017,07,15,03,10,2.60
2017,07,15,03,11,2.90
2017,07,15,03,12,1.40
2017,07,15,03,13,3.30
2017,07,15,03,14,3.50
2017,07,15,03,15,4.90
2017,07,15,03,16,5.30
2017,07,15,03,17,4.40
2017,07,15,03,18,2.90
2017,07,15,03,19,2.70
2017,07,15,03,20,1.60
2017,07,15,03,21,1.40
2017,07,15,03,22,1.80
2017,07,15,03,23,1.90
2017,07,15,03,24,0.80
2017,07,15,03,25,2.30
2017,07,15,03,26,1.70
2017,07,15,03,27,0.10
2017,07,15,03,28,2.30
2017,07,15,03,29,2.30
2017,07,15,03,30,1.90
2017,07,15,03,31,2.30
2017,07,15,03,32,2.50
2017,07,15,03,33,1.10
2017,07,15,03,34,1.50
2017,07,15,03,35,2.10
2017,07,15,03,36,1.90
2017,07,15,03,37,0.40
2017,07,15,03,38,0.40
2017,07,15,03,39,1.20
2017,07,15,03,40,1.60
2017,07,15,03,41,2.10
2017,07,15,03,42,1.30
2017,07,15,03,43,2.80
2017,07,15,03,44,5.80
2017,07,15,03,45,2.90
2017,07,15,03,46,1.10
2017,07,15,03,47,3.90
2017,07,15,03,48,6.80
2017,07,15,03,49,4.30
2017,07,15,03,50,1.60
2017,07,15,03,51,1.80
2017,07,15,03,52,1.60
2017,07,15,03,53,0.80
2017,07,15,03,54,1.40
2017,07,15,03,55,1.70
2017,07,15,03,56,1.20
2017,07,15,03,57,5.50
2017,07,15,03,58,5.40
2017,07,15,03,59,5.00
2017,07,15,04,00,3.50
2017,07,15,04,01,3.70
2017,07,15,04,02,2.00
2017,07,15,04,03,2.30
2017,07,15,04,04,2.60
2017,07,15,04,05,1.90
2017,07,15,04,06,3.40
2017,07,15,04,07,2.30
2017,07,15,04,08,1.80
2017,07,15,04,09,2.40
2017,07,15,04,10,4.80
2017,07,15,04,11,5.60
2017,07,15,04,12,4.90
2017,07,15,04,13,3.40
2017,07,15,04,14,0.60
2017,07,15,04,15,0.60
2017,07,15,04,16,1.30
2017,07,15,04,17,3.20
2017,07,15,04,18,4.00
2017,07,15,04,19,7.00
2017,07,15,04,20,5.90
2017,07,15,04,21,3.00
2017,07,15,04,22,2.80
2017,07,15,04,23,3.60
2017,07,15,04,24,3.60
2017,07,15,04,25,4.90
2017,07,15,04,26,5.10
2017,07,15,04,27,2.50
2017,07,15,04,28,5.60
2017,07,15,04,29,5.10
2017,07,15,04,30,5.60
2017,07,15,04,31,3.70
2017,07,15,04,32,4.80
2017,07,15,04,33,2.70
2017,07,15,04,34,1.60
2017,07,15,04,35,3.30
2017,07,15,04,36,2.20
2017,07,15,04,37,3.10
2017,07,15,04,38,2.20
2017,07,15,04,39,3.20
2017,07,15,04,40,3.60
2017,07,15,04,41,0.30
2017,07,15,04,42,2.80
2017,07,15,04,43,2.90
2017,07,15,04,44,1.40
2017,07,15,04,45,3.70
2017,07,15,04,46,6.50
2017,07,15,04,47,5.40
2017,07,15,04,48,2.50
2017,07,15,04,49,1.30
2017,07,15,04,50,2.60
2017,07,15,04,51,2.50
2017,07,15,04,52,3.20
2017,07,15,04,53,3.30
2017,07,15,04,54,2.00
2017,07,15,04,55,1.50
2017,07,15,04,56,0.00
2017,07,15,04,57,5.30
2017,07,15,04,58,6.60
2017,07,15,04,59,4.90
2017,07,15,05,00,5.20
2017,07,15,05,01,4.70
2017,07,15,05,02,5.30
2017,07,15,05,03,8.50
2017,07,15,05,04,3.60
2017,07,15,05,05,1.30
2017,07,15,05,06,1.60
2017,07,15,05,07,3.80
2017,07,15,05,08,3.80
2017,07,15,05,09,2.40
2017,07,15,05,10,2.40
2017,07,15,05,11,4.10
2017,07,15,05,12,5.20
2017,07,15,05,13,5.10
2017,07,15,05,14,2.70
2017,07,15,05,15,2.70
2017,07,15,05,16,2.80
2017,07,15,05,17,2.60
2017,07,15,05,18,1.20
2017,07,15,05,19,0.60
2017,07,15,05,20,1.60
2017,07,15,05,21,2.70
2017,07,15,05,22,2.10
2017,07,15,05,23,2.50
2017,07,15,05,24,3.10
2017,07,15,05,25,1.80
2017,07,15,05,26,2.50
2017,07,15,05,27,1.40
2017,07,15,05,28,0.20
2017,07,15,05,29,1.10
2017,07,15,05,30,0.50
2017,07,15,05,31,1.90
2017,07,15,05,32,0.20
2017,07,15,05,33,0.20
2017,07,15,05,34,0.10
2017,07,15,05,35,0.20
2017,07,15,05,36,0.20
2017,07,15,05,37,0.80
2017,07,15,05,38,1.50
2017,07,15,05,39,3.30
2017,07,15,05,40,4.30
2017,07,15,05,41,5.30
2017,07,15,05,42,3.50
2017,07,15,05,43,2.60
2017,07,15,05,44,3.40
2017,07,15,05,45,3.60
2017,07,15,05,46,4.50
2017,07,15,05,47,2.80
2017,07,15,05,48,2.30
2017,07,15,05,49,2.50
2017,07,15,05,50,4.30
2017,07,15,05,51,4.40
2017,07,15,05,52,4.80
2017,07,15,05,53,2.80
2017,07,15,05,54,2.10
2017,07,15,05,55,4.40
2017,07,15,05,56,2.60
2017,07,15,05,57,2.80
2017,07,15,05,58,3.70
2017,07,15,05,59,2.30
2017,07,15,06,00,2.60
2017,07,15,06,01,2.80
2017,07,15,06,02,2.90
2017,07,15,06,03,2.10
2017,07,15,06,04,3.10
2017,07,15,06,05,8.70
2017,07,15,06,06,5.40
2017,07,15,06,07,2.60
2017,07,15,06,08,5.10
2017,07,15,06,09,9.00
2017,07,15,06,10,8.70
2017,07,15,06,11,6.80
2017,07,15,06,12,8.40
2017,07,15,06,13,7.50
2017,07,15,06,14,8.10
2017,07,15,06,15,5.30
2017,07,15,06,16,6.00
2017,07,15,06,17,8.90
2017,07,15,06,18,12.30
2017,07,15,06,19,5.80
2017,07,15,06,20,4.30
2017,07,15,06,21,6.10
2017,07,15,06,22,11.70
2017,07,15,06,23,10.50
2017,07,15,06,24,7.50
2017,07,15,06,25,8.30
2017,07,15,06,26,7.40
2017,07,15,06,27,11.60
2017,07,15,06,28,9.60
2017,07,15,06,29,13.90
2017,07,15,06,30,12.90
2017,07,15,06,31,7.80
2017,07,15,06,32,12.50
2017,07,15,06,33,11.70
2017,07,15,06,34,13.70
2017,07,15,06,35,10.10
2017,07,15,06,36,9.70
2017,07,15,06,37,5.70
2017,07,15,06,38,9.80
2017,07,15,06,39,11.20
2017,07,15,06,40,8.90
2017,07,15,06,41,6.20
2017,07,15,06,42,3.70
2017,07,15,06,43,5.60
2017,07,15,06,44,6.90
2017,07,15,06,45,10.40
2017,07,15,06,46,8.80
2017,07,15,06,47,8.00
2017,07,15,06,48,7.00
2017,07,15,06,49,9.30
2017,07,15,06,50,12.00
2017,07,15,06,51,10.50
2017,07,15,06,52,9.10
2017,07,15,06,53,12.50
2017,07,15,06,54,15.70
2017,07,15,06,55,7.90
2017,07,15,06,56,16.40
2017,07,15,06,57,8.30
2017,07,15,06,58,9.20
2017,07,15,06,59,9.80
2017,07,15,07,00,7.60
2017,07,15,07,01,5.20
2017,07,15,07,02,3.50
2017,07,15,07,03,3.60
2017,07,15,07,04,8.80
2017,07,15,07,05,3.60
2017,07,15,07,06,7.70
2017,07,15,07,07,8.40
2017,07,15,07,08,4.70
2017,07,15,07,09,7.20
2017,07,15,07,10,5.10
2017,07,15,07,11,8.20
2017,07,15,07,12,7.60
2017,07,15,07,13,4.80
2017,07,15,07,14,3.20
2017,07,15,07,15,6.70
2017,07,15,07,16,7.20
2017,07,15,07,17,6.50
2017,07,15,07,18,5.60
2017,07,15,07,19,4.60
2017,07,15,07,20,5.30
2017,07,15,07,21,5.30
2017,07,15,07,22,7.30
2017,07,15,07,23,5.80
2017,07,15,07,24,3.50
2017,07,15,07,25,4.80
2017,07,15,07,26,7.80
2017,07,15,07,27,6.30
2017,07,15,07,28,5.10
2017,07,15,07,29,5.90
2017,07,15,07,30,5.70
2017,07,15,07,31,5.00
2017,07,15,07,32,3.80
2017,07,15,07,33,4.80
2017,07,15,07,34,5.30
2017,07,15,07,35,7.00
2017,07,15,07,36,7.20
2017,07,15,07,37,7.10
2017,07,15,07,38,5.20
2017,07,15,07,39,3.50
2017,07,15,07,40,6.30
2017,07,15,07,41,10.20
2017,07,15,07,42,7.90
2017,07,15,07,43,5.80
2017,07,15,07,44,10.50
2017,07,15,07,45,7.00
2017,07,15,07,46,5.30
2017,07,15,07,47,9.90
2017,07,15,07,48,7.50
2017,07,15,07,49,6.60
2017,07,15,07,50,5.80
2017,07,15,07,51,5.10
2017,07,15,07,52,7.30
2017,07,15,07,53,9.90
2017,07,15,07,54,4.10
2017,07,15,07,55,4.90
2017,07,15,07,56,10.20
2017,07,15,07,57,7.80
2017,07,15,07,58,6.60
2017,07,15,07,59,9.50
2017,07,15,08,00,7.70
2017,07,15,08,01,6.80
2017,07,15,08,02,4.90
2017,07,15,08,03,4.90
2017,07,15,08,04,2.60
2017,07,15,08,05,4.10
2017,07,15,08,06,4.90
2017,07,15,08,07,4.40
2017,07,15,08,08,4.90
2017,07,15,08,09,5.00
2017,07,15,08,10,10.40
2017,07,15,08,11,6.30
2017,07,15,08,12,7.00
2017,07,15,08,13,8.50
2017,07,15,08,14,9.30
2017,07,15,08,15,10.00
2017,07,15,08,16,9.00
2017,07,15,08,17,16.60
2017,07,15,08,18,15.10
2017,07,15,08,19,11.20
2017,07,15,08,20,10.30
2017,07,15,08,21,14.20
2017,07,15,08,22,15.70
2017,07,15,08,23,15.90
2017,07,15,08,24,12.80
2017,07,15,08,25,12.70
2017,07,15,08,26,15.80
2017,07,15,08,27,11.50
2017,07,15,08,28,10.80
2017,07,15,08,29,13.90
2017,07,15,08,30,13.70
2017,07,15,08,31,10.50
2017,07,15,08,32,11.20
2017,07,15,08,33,4.40
2017,07,15,08,34,12.20
2017,07,15,08,35,12.70
2017,07,15,08,36,6.10
2017,07,15,08,37,3.70
2017,07,15,08,38,8.70
2017,07,15,08,39,7.40
2017,07,15,08,40,16.90
2017,07,15,08,41,17.40
2017,07,15,08,42,16.40
2017,07,15,08,43,6.90
2017,07,15,08,44,6.20
2017,07,15,08,45,12.40
2017,07,15,08,46,12.00
2017,07,15,08,47,6.30
2017,07,15,08,48,6.20
2017,07,15,08,49,6.00
2017,07,15,08,50,7.40
2017,07,15,08,51,6.50
2017,07,15,08,52,5.60
2017,07,15,08,53,9.50
2017,07,15,08,54,4.10
2017,07,15,08,55,6.90
2017,07,15,08,56,6.90
2017,07,15,08,57,5.70
2017,07,15,08,58,7.40
2017,07,15,08,59,4.20
2017,07,15,09,00,4.40
2017,07,15,09,01,5.40
2017,07,15,09,02,3.30
2017,07,15,09,03,6.10
2017,07,15,09,04,4.00
2017,07,15,09,05,7.90
2017,07,15,09,06,10.10
2017,07,15,09,07,4.60
2017,07,15,09,08,5.00
2017,07,15,09,09,8.90
2017,07,15,09,10,8.90
2017,07,15,09,11,6.30
2017,07,15,09,12,8.70
2017,07,15,09,13,11.60
2017,07,15,09,14,14.50
2017,07,15,09,15,12.40
2017,07,15,09,16,7.20
2017,07,15,09,17,7.20
2017,07,15,09,18,10.50
2017,07,15,09,19,10.30
2017,07,15,09,20,6.90
2017,07,15,09,21,5.70
2017,07,15,09,22,3.70
2017,07,15,09,23,4.70
2017,07,15,09,24,11.60
2017,07,15,09,25,6.80
2017,07,15,09,26,8.90
2017,07,15,09,27,12.80
2017,07,15,09,28,14.80
2017,07,15,09,29,14.60
2017,07,15,09,30,14.30
2017,07,15,09,31,15.60
2017,07,15,09,32,16.60
2017,07,15,09,33,17.90
2017,07,15,09,34,19.20
2017,07,15,09,35,16.90
2017,07,15,09,36,16.10
2017,07,15,09,37,14.40
2017,07,15,09,38,15.50
2017,07,15,09,39,14.50
2017,07,15,09,40,13.20
2017,07,15,09,41,18.30
2017,07,15,09,42,17.00
2017,07,15,09,43,15.60
2017,07,15,09,44,18.80
2017,07,15,09,45,11.90
2017,07,15,09,46,14.10
2017,07,15,09,47,16.30
2017,07,15,09,48,6.80
2017,07,15,09,49,4.50
2017,07,15,09,50,11.40
2017,07,15,09,51,6.70
2017,07,15,09,52,9.40
2017,07,15,09,53,12.50
2017,07,15,09,54,22.90
2017,07,15,09,55,12.00
2017,07,15,09,56,15.10
2017,07,15,09,57,13.00
2017,07,15,09,58,14.20
2017,07,15,09,59,17.80
2017,07,15,10,00,20.00
2017,07,15,10,01,19.40
2017,07,15,10,02,15.10
2017,07,15,10,03,13.90
2017,07,15,10,04,8.60
2017,07,15,10,05,10.80
2017,07,15,10,06,13.20
2017,07,15,10,07,17.60
2017,07,15,10,08,12.70
2017,07,15,10,09,19.10
2017,07,15,10,10,17.20
2017,07,15,10,11,11.30
2017,07,15,10,12,9.50
2017,07,15,10,13,9.90
2017,07,15,10,14,9.00
2017,07,15,10,15,9.00
2017,07,15,10,16,11.30
2017,07,15,10,17,6.90
2017,07,15,10,18,10.90
2017,07,15,10,19,11.30
2017,07,15,10,20,14.60
2017,07,15,10,21,13.00
2017,07,15,10,22,15.00
2017,07,15,10,23,19.40
2017,07,15,10,24,14.80
2017,07,15,10,25,14.40
2017,07,15,10,26,16.10
2017,07,15,10,27,12.20
2017,07,15,10,28,14.10
2017,07,15,10,29,16.20
2017,07,15,10,30,18.10
2017,07,15,10,31,18.40
2017,07,15,10,32,17.40
2017,07,15,10,33,13.60
2017,07,15,10,34,19.10
2017,07,15,10,35,14.80
2017,07,15,10,36,14.50
2017,07,15,10,37,12.80
2017,07,15,10,38,13.40
2017,07,15,10,39,8.20
2017,07,15,10,40,9.90
2017,07,15,10,41,17.60
2017,07,15,10,42,13.90
2017,07,15,10,43,13.90
2017,07,15,10,44,12.50
2017,07,15,10,45,11.40
2017,07,15,10,46,10.20
2017,07,15,10,47,11.50
2017,07,15,10,48,14.40
2017,07,15,10,49,15.40
2017,07,15,10,50,7.30
2017,07,15,10,51,14.40
2017,07,15,10,52,10.30
2017,07,15,10,53,14.40
2017,07,15,10,54,16.40
2017,07,15,10,55,9.90
2017,07,15,10,56,14.90
2017,07,15,10,57,12.30
2017,07,15,10,58,19.00
2017,07,15,10,59,15.10
2017,07,15,11,00,23.50
2017,07,15,11,01,18.70
2017,07,15,11,02,15.70
2017,07,15,11,03,10.10
2017,07,15,11,04,5.70
2017,07,15,11,05,9.90
2017,07,15,11,06,8.60
2017,07,15,11,07,8.20
2017,07,15,11,08,3.20
2017,07,15,11,09,8.80
2017,07,15,11,10,13.60
2017,07,15,11,11,19.00
2017,07,15,11,12,16.00
2017,07,15,11,13,9.40
2017,07,15,11,14,11.20
2017,07,15,11,15,7.70
2017,07,15,11,16,10.60
2017,07,15,11,17,13.70
2017,07,15,11,18,10.30
2017,07,15,11,19,8.80
2017,07,15,11,20,9.30
2017,07,15,11,21,9.70
2017,07,15,11,22,7.50
2017,07,15,11,23,10.20
2017,07,15,11,24,7.40
2017,07,15,11,25,13.00
2017,07,15,11,26,14.80
2017,07,15,11,27,14.30
2017,07,15,11,28,11.90
2017,07,15,11,29,8.30
2017,07,15,11,30,5.40
2017,07,15,11,31,15.80
2017,07,15,11,32,9.00
2017,07,15,11,33,9.30
2017,07,15,11,34,9.40
2017,07,15,11,35,8.40
2017,07,15,11,36,6.30
2017,07,15,11,37,11.70
2017,07,15,11,38,13.50
2017,07,15,11,39,11.80
2017,07,15,11,40,19.00
2017,07,15,11,41,14.10
2017,07,15,11,42,7.90
2017,07,15,11,43,11.20
2017,07,15,11,44,7.30
2017,07,15,11,45,5.00
2017,07,15,11,46,6.20
2017,07,15,11,47,3.20
2017,07,15,11,48,6.00
2017,07,15,11,49,9.50
2017,07,15,11,50,8.20
2017,07,15,11,51,7.80
2017,07,15,11,52,9.30
2017,07,15,11,53,11.40
2017,07,15,11,54,12.20
2017,07,15,11,55,8.90
2017,07,15,11,56,7.70
2017,07,15,11,57,5.40
2017,07,15,11,58,9.30
2017,07,15,11,59,8.50
2017,07,15,12,00,10.40
2017,07,15,12,01,5.30
2017,07,15,12,02,5.30
2017,07,15,12,03,9.70
2017,07,15,12,04,5.80
2017,07,15,12,05,10.80
2017,07,15,12,06,5.90
2017,07,15,12,07,3.60
2017,07,15,12,08,6.80
2017,07,15,12,09,5.70
2017,07,15,12,10,8.50
2017,07,15,12,11,8.30
2017,07,15,12,12,6.30
2017,07,15,12,13,7.70
2017,07,15,12,14,9.50
2017,07,15,12,15,8.20
2017,07,15,12,16,6.00
2017,07,15,12,17,5.90
2017,07,15,12,18,4.10
2017,07,15,12,19,5.70
2017,07,15,12,20,5.00
2017,07,15,12,21,8.20
2017,07,15,12,22,4.80
2017,07,15,12,23,10.40
2017,07,15,12,24,9.00
2017,07,15,12,25,7.80
2017,07,15,12,26,11.90
2017,07,15,12,27,12.40
2017,07,15,12,28,6.80
2017,07,15,12,29,7.20
2017,07,15,12,30,8.00
2017,07,15,12,31,12.00
2017,07,15,12,32,9.10
2017,07,15,12,33,6.50
2017,07,15,12,34,6.30
2017,07,15,12,35,4.70
2017,07,15,12,36,13.10
2017,07,15,12,37,11.30
2017,07,15,12,38,7.10
2017,07,15,12,39,5.70
2017,07,15,12,40,6.40
2017,07,15,12,41,15.00
2017,07,15,12,42,21.30
2017,07,15,12,43,14.30
2017,07,15,12,44,7.30
2017,07,15,12,45,17.50
2017,07,15,12,46,14.80
2017,07,15,12,47,11.40
2017,07,15,12,48,18.20
2017,07,15,12,49,14.60
2017,07,15,12,50,11.70
2017,07,15,12,51,6.30
2017,07,15,12,52,5.00
2017,07,15,12,53,9.30
2017,07,15,12,54,21.00
2017,07,15,12,55,24.60
2017,07,15,12,56,17.40
2017,07,15,12,57,11.40
2017,07,15,12,58,15.60
2017,07,15,12,59,14.90
2017,07,15,13,00,11.50
2017,07,15,13,01,17.60
2017,07,15,13,02,17.90
2017,07,15,13,03,17.90
2017,07,15,13,04,8.20
2017,07,15,13,05,8.40
2017,07,15,13,06,9.50
2017,07,15,13,07,11.80
2017,07,15,13,08,10.50
2017,07,15,13,09,7.00
2017,07,15,13,10,9.00
2017,07,15,13,11,9.90
2017,07,15,13,12,5.90
2017,07,15,13,13,9.60
2017,07,15,13,14,6.70
2017,07,15,13,15,4.00
2017,07,15,13,16,7.20
2017,07,15,13,17,14.10
2017,07,15,13,18,12.10
2017,07,15,13,19,25.80
2017,07,15,13,20,17.00
2017,07,15,13,21,7.90
2017,07,15,13,22,9.10
2017,07,15,13,23,11.20
2017,07,15,13,24,10.90
2017,07,15,13,25,15.80
2017,07,15,13,26,6.20
2017,07,15,13,27,4.10
2017,07,15,13,28,5.30
2017,07,15,13,29,7.50
2017,07,15,13,30,14.80
2017,07,15,13,31,8.70
2017,07,15,13,32,7.60
2017,07,15,13,33,5.40
2017,07,15,13,34,7.30
2017,07,15,13,35,6.50
2017,07,15,13,36,5.50
2017,07,15,13,37,7.40
2017,07,15,13,38,7.80
2017,07,15,13,39,4.90
2017,07,15,13,40,7.20
2017,07,15,13,41,6.40
2017,07,15,13,42,4.50
2017,07,15,13,43,6.80
2017,07,15,13,44,3.90
2017,07,15,13,45,2.90
2017,07,15,13,46,11.00
2017,07,15,13,47,5.40
2017,07,15,13,48,5.80
2017,07,15,13,49,6.50
2017,07,15,13,50,6.70
2017,07,15,13,51,6.00
2017,07,15,13,52,15.60
2017,07,15,13,53,8.50
2017,07,15,13,54,12.00
2017,07,15,13,55,5.70
2017,07,15,13,56,6.10
2017,07,15,13,57,10.40
2017,07,15,13,58,3.00
2017,07,15,13,59,3.40
2017,07,15,14,00,7.40
2017,07,15,14,01,7.30
2017,07,15,14,02,6.50
2017,07,15,14,03,12.70
2017,07,15,14,04,6.20
2017,07,15,14,05,4.50
2017,07,15,14,06,4.30
2017,07,15,14,07,12.80
2017,07,15,14,08,14.00
2017,07,15,14,09,15.10
2017,07,15,14,10,10.00
2017,07,15,14,11,13.20
2017,07,15,14,12,15.50
2017,07,15,14,13,10.70
2017,07,15,14,14,9.70
2017,07,15,14,15,12.80
2017,07,15,14,16,15.50
2017,07,15,14,17,15.10
2017,07,15,14,18,8.50
2017,07,15,14,19,13.70
2017,07,15,14,20,9.80
2017,07,15,14,21,9.20
2017,07,15,14,22,5.70
2017,07,15,14,23,3.60
2017,07,15,14,24,8.70
2017,07,15,14,25,13.40
2017,07,15,14,26,10.70
2017,07,15,14,27,7.30
2017,07,15,14,28,7.70
2017,07,15,14,29,6.30
2017,07,15,14,30,8.80
2017,07,15,14,31,9.20
2017,07,15,14,32,12.00
2017,07,15,14,33,11.70
2017,07,15,14,34,8.70
2017,07,15,14,35,10.20
2017,07,15,14,36,4.80
2017,07,15,14,37,13.00
2017,07,15,14,38,14.80
2017,07,15,14,39,8.30
2017,07,15,14,40,2.70
2017,07,15,14,41,10.00
2017,07,15,14,42,16.80
2017,07,15,14,43,15.50
2017,07,15,14,44,16.40
2017,07,15,14,45,16.10
2017,07,15,14,46,14.00
2017,07,15,14,47,17.90
2017,07,15,14,48,15.30
2017,07,15,14,49,10.90
2017,07,15,14,50,12.70
2017,07,15,14,51,10.70
2017,07,15,14,52,5.70
2017,07,15,14,53,8.00
2017,07,15,14,54,5.10
2017,07,15,14,55,9.80
2017,07,15,14,56,5.70
2017,07,15,14,57,7.50
2017,07,15,14,58,5.80
2017,07,15,14,59,6.40
2017,07,15,15,00,12.20
2017,07,15,15,01,9.70
2017,07,15,15,02,18.10
2017,07,15,15,03,13.60
2017,07,15,15,04,16.60
2017,07,15,15,05,13.40
2017,07,15,15,06,13.00
2017,07,15,15,07,8.50
2017,07,15,15,08,9.00
2017,07,15,15,09,8.00
2017,07,15,15,10,6.70
2017,07,15,15,11,9.60
2017,07,15,15,12,9.90
2017,07,15,15,13,9.00
2017,07,15,15,14,10.50
2017,07,15,15,15,11.30
2017,07,15,15,16,7.80
2017,07,15,15,17,6.20
2017,07,15,15,18,11.10
2017,07,15,15,19,9.20
2017,07,15,15,20,6.50
2017,07,15,15,21,9.70
2017,07,15,15,22,10.30
2017,07,15,15,23,17.60
2017,07,15,15,24,11.10
2017,07,15,15,25,8.80
2017,07,15,15,26,10.90
2017,07,15,15,27,6.40
2017,07,15,15,28,8.30
2017,07,15,15,29,15.40
2017,07,15,15,30,6.20
2017,07,15,15,31,8.80
2017,07,15,15,32,8.10
2017,07,15,15,33,8.50
2017,07,15,15,34,11.10
2017,07,15,15,35,8.60
2017,07,15,15,36,6.50
2017,07,15,15,37,6.60
2017,07,15,15,38,9.70
2017,07,15,15,39,5.70
2017,07,15,15,40,14.50
2017,07,15,15,41,10.90
2017,07,15,15,42,10.20
2017,07,15,15,43,6.50
2017,07,15,15,44,12.20
2017,07,15,15,45,12.10
2017,07,15,15,46,21.70
2017,07,15,15,47,7.80
2017,07,15,15,48,4.90
2017,07,15,15,49,10.20
2017,07,15,15,50,21.60
2017,07,15,15,51,12.30
2017,07,15,15,52,10.60
2017,07,15,15,53,13.00
2017,07,15,15,54,5.40
2017,07,15,15,55,12.10
2017,07,15,15,56,16.10
2017,07,15,15,57,9.30
2017,07,15,15,58,12.00
2017,07,15,15,59,15.50
2017,07,15,16,00,12.30
2017,07,15,16,01,9.70
2017,07,15,16,02,7.30
2017,07,15,16,03,15.50
2017,07,15,16,04,8.40
2017,07,15,16,05,9.50
2017,07,15,16,06,9.90
2017,07,15,16,07,11.30
2017,07,15,16,08,10.00
2017,07,15,16,09,21.30
2017,07,15,16,10,14.90
2017,07,15,16,11,7.50
2017,07,15,16,12,17.00
2017,07,15,16,13,10.90
2017,07,15,16,14,9.80
2017,07,15,16,15,8.60
2017,07,15,16,16,7.30
2017,07,15,16,17,12.20
2017,07,15,16,18,7.80
2017,07,15,16,19,12.30
2017,07,15,16,20,13.20
2017,07,15,16,21,9.30
2017,07,15,16,22,5.90
2017,07,15,16,23,3.50
2017,07,15,16,24,3.50
2017,07,15,16,25,8.70
2017,07,15,16,26,7.70
2017,07,15,16,27,19.90
2017,07,15,16,28,14.40
2017,07,15,16,29,15.10
2017,07,15,16,30,15.60
2017,07,15,16,31,4.20
2017,07,15,16,32,6.00
2017,07,15,16,33,8.40
2017,07,15,16,34,11.40
2017,07,15,16,35,9.10
2017,07,15,16,36,15.40
2017,07,15,16,37,15.50
2017,07,15,16,38,14.90
2017,07,15,16,39,11.10
2017,07,15,16,40,10.70
2017,07,15,16,41,11.70
2017,07,15,16,42,8.50
2017,07,15,16,43,8.80
2017,07,15,16,44,8.30
2017,07,15,16,45,9.30
2017,07,15,16,46,13.90
2017,07,15,16,47,14.00
2017,07,15,16,48,13.20
2017,07,15,16,49,10.60
2017,07,15,16,50,8.00
2017,07,15,16,51,13.80
2017,07,15,16,52,6.90
2017,07,15,16,53,6.20
2017,07,15,16,54,4.40
2017,07,15,16,55,14.90
2017,07,15,16,56,11.10
2017,07,15,16,57,3.70
2017,07,15,16,58,5.00
2017,07,15,16,59,11.30
2017,07,15,17,00,7.80
2017,07,15,17,01,14.80
2017,07,15,17,02,12.90
2017,07,15,17,03,13.00
2017,07,15,17,04,13.40
2017,07,15,17,05,4.50
2017,07,15,17,06,10.20
2017,07,15,17,07,9.10
2017,07,15,17,08,11.70
2017,07,15,17,09,11.50
2017,07,15,17,10,13.90
2017,07,15,17,11,14.50
2017,07,15,17,12,14.30
2017,07,15,17,13,20.40
2017,07,15,17,14,9.70
2017,07,15,17,15,16.30
2017,07,15,17,16,18.30
2017,07,15,17,17,9.40
2017,07,15,17,18,11.30
2017,07,15,17,19,12.70
2017,07,15,17,20,9.80
2017,07,15,17,21,12.90
2017,07,15,17,22,9.10
2017,07,15,17,23,15.00
2017,07,15,17,24,11.80
2017,07,15,17,25,11.90
2017,07,15,17,26,12.70
2017,07,15,17,27,12.20
2017,07,15,17,28,7.10
2017,07,15,17,29,11.70
2017,07,15,17,30,15.40
2017,07,15,17,31,12.10
2017,07,15,17,32,8.70
2017,07,15,17,33,8.40
2017,07,15,17,34,11.60
2017,07,15,17,35,17.10
2017,07,15,17,36,16.10
2017,07,15,17,37,10.40
2017,07,15,17,38,13.20
2017,07,15,17,39,16.20
2017,07,15,17,40,18.80
2017,07,15,17,41,14.60
2017,07,15,17,42,8.30
2017,07,15,17,43,8.20
2017,07,15,17,44,6.60
2017,07,15,17,45,11.00
2017,07,15,17,46,18.30
2017,07,15,17,47,12.90
2017,07,15,17,48,11.90
2017,07,15,17,49,12.10
2017,07,15,17,50,7.40
2017,07,15,17,51,14.00